Regional Weather Roundup
Issued by NWS

Home | Current Version | Previous Version | Graphics & Text | Print | Product List | Glossary On
Versions: 1 2 3 4 5 6 7 8 9 10 11 12 13 14 15 16 17 18 19 20 21 22 23 24 25 26 27 28 29 30 31 32 33 34 35 36 37 38 39 40 41 42 43 44 45 46 47 48 49 50
000
ASUS43 KFSD 061510
RWRSD

WEATHER ROUNDUP FOR SOUTH DAKOTA
NATIONAL WEATHER SERVICE SIOUX FALLS SD
900 AM CST FRI MAR 06 2015

NOTE: "FAIR" INDICATES FEW OR NO CLOUDS BELOW 12,000 FEET WITH NO
SIGNIFICANT WEATHER AND/OR OBSTRUCTIONS TO VISIBILITY.


SDZ001>005-009-010-012>017-061600-
NORTHWEST AND NORTH CENTRAL SOUTH DAKOTA

CITY           SKY/WX    TMP DP  RH WIND       PRES   REMARKS
BUFFALO          N/A     33  21  61 W7        30.02R WCI  27
FAITH            N/A     33  18  53 W7        30.11R WCI  27
MOBRIDGE       SUNNY     29  18  63 N5        30.09R WCI  24
$$

SDZ012>016-024>037-041>051-057-063-072>074-061600-
SOUTHWEST AND SOUTH CENTRAL SOUTH DAKOTA

CITY           SKY/WX    TMP DP  RH WIND       PRES   REMARKS
RAPID CTY ARPT SUNNY     36  23  59 NW5       30.13R
PIERRE         MOSUNNY   31  19  61 W6        30.13R WCI  25
CUSTER         MOSUNNY   34  12  40 W13       30.13R WCI  25
ELLSWORTH AFB  CLOUDY    39  19  45 SW7       30.12
PHILIP         SUNNY     33  21  61 W8        30.13R WCI  26
PINE RIDGE     MOSUNNY   37  22  54 SW12      30.18R
SPEARFISH      FAIR      39  18  41 W10       30.13R
WINNER         FAIR      40  21  46 W10       30.14R
$$

SDZ004>011-016>023-039-040-061600-
NORTHEAST SOUTH DAKOTA

CITY           SKY/WX    TMP DP  RH WIND       PRES   REMARKS
ABERDEEN       SUNNY     25  15  66 NW9       30.12R WCI  15
WATERTOWN      SUNNY     23  13  65 NW12      30.06R WCI  12
SISSETON         N/A     25  15  66 N15       30.08  WCI  13
$$

SDZ017-020-022-023-036>040-048>070-061600-
SOUTHEAST SOUTH DAKOTA

CITY           SKY/WX    TMP DP  RH WIND       PRES   REMARKS
SIOUX FALLS    MOSUNNY   32  19  58 W8        30.09S WCI  25
HURON          SUNNY     26  16  65 CALM      30.12R
CHAMBERLAIN    SUNNY     34  22  62 NW8       30.12R WCI  27
MITCHELL       MOSUNNY   36  21  54 W14       30.11R
YANKTON        SUNNY     36  19  51 SW10      30.14S
$$

ABBREVIATIONS USED IN REMARKS
   TC - TEMPERATURE IN CELSIUS
  WCI - WIND CHILL INDEX
   HX - HEAT INDEX
  VSB - VISIBILITY




USA.gov is the U.S. government's official web portal to all federal, state and local government web resources and services.